AAL101 EGLL-KJFK

Flight info

Callsign AAL101
Flight time 7h 17m
Altitude 24000
Route CPT L9 BIBPE/N0481F340 DCT BUCGO DCT FELCA DCT NICXI DCT BAKUR DCT NEBIN/M084F350 DCT 5330N02000W 5230N03000W 51N040W 4930N05000W DCT IBERG/N0486F360 N364A TUSKY DCT PLYMM PARCH4
Aircraft B77W/H-SDE1E2E3FGHIJ2J3J4J5M1RWXY/LB1D1

Departure

Time 2026-05-07 19:03
Airport London Heathrow Airport (EGLL)

Arrival

Time 2026-05-08 02:20
Airport John F. Kennedy International Airport (KJFK)
Time Latitude Longitude Altitude Speed Heading
2026-05-07 18:32 51.46850 -0.46347 96 ft 0 kts 55°
2026-05-07 18:33 51.47144 -0.47487 96 ft 0 kts 269°
2026-05-07 18:52 51.47144 -0.47486 95 ft 1 kts 269°
2026-05-07 18:52 51.47145 -0.47460 95 ft 2 kts 267°
2026-05-07 18:52 51.47146 -0.47434 94 ft 2 kts 264°
2026-05-07 18:52 51.47148 -0.47408 91 ft 2 kts 258°
2026-05-07 18:53 51.47152 -0.47382 94 ft 2 kts 246°
2026-05-07 18:53 51.47161 -0.47360 92 ft 2 kts 210°
2026-05-07 18:53 51.47174 -0.47353 94 ft 1 kts 184°
2026-05-07 18:53 51.47177 -0.47352 93 ft 0 kts 184°
2026-05-07 18:56 51.47161 -0.47353 95 ft 7 kts 181°
2026-05-07 18:56 51.47109 -0.47354 95 ft 8 kts 180°
2026-05-07 18:57 51.47025 -0.47353 95 ft 14 kts 179°
2026-05-07 18:57 51.46931 -0.47351 92 ft 14 kts 179°
2026-05-07 18:57 51.46837 -0.47350 92 ft 14 kts 179°
2026-05-07 18:57 51.46742 -0.47349 93 ft 14 kts 180°
2026-05-07 18:58 51.46663 -0.47406 95 ft 14 kts 244°
2026-05-07 18:58 51.46655 -0.47559 93 ft 14 kts 269°
2026-05-07 18:58 51.46655 -0.47714 94 ft 14 kts 269°
2026-05-07 18:58 51.46654 -0.47868 94 ft 14 kts 269°
2026-05-07 18:59 51.46653 -0.48022 95 ft 14 kts 269°
2026-05-07 18:59 51.46653 -0.48201 98 ft 18 kts 270°
2026-05-07 18:59 51.46652 -0.48415 99 ft 21 kts 269°
2026-05-07 18:59 51.46650 -0.48643 98 ft 20 kts 269°
2026-05-07 19:00 51.46611 -0.48755 99 ft 3 kts 206°
2026-05-07 19:00 51.46603 -0.48761 99 ft 0 kts 203°
2026-05-07 19:00 51.46598 -0.48765 98 ft 0 kts 203°
2026-05-07 19:00 51.46597 -0.48765 98 ft 0 kts 203°
2026-05-07 19:01 51.46596 -0.48766 97 ft 2 kts 203°
2026-05-07 19:01 51.46562 -0.48782 98 ft 9 kts 187°
2026-05-07 19:01 51.46500 -0.48752 100 ft 10 kts 140°
2026-05-07 19:02 51.46480 -0.48693 101 ft 3 kts 104°
2026-05-07 19:02 51.46478 -0.48650 100 ft 0 kts 90°
2026-05-07 19:02 51.46478 -0.48649 100 ft 0 kts 90°
2026-05-07 19:02 51.46478 -0.48627 99 ft 7 kts 90°
2026-05-07 19:03 51.46479 -0.48297 99 ft 71 kts 90°
2026-05-07 19:03 51.46485 -0.46938 100 ft 171 kts 89°
2026-05-07 19:03 51.46482 -0.44865 400 ft 188 kts 91°
2026-05-07 19:03 51.46512 -0.42795 1073 ft 185 kts 90°
2026-05-07 19:04 51.46492 -0.40712 1627 ft 184 kts 106°
2026-05-07 19:04 51.45877 -0.39051 2255 ft 177 kts 143°
2026-05-07 19:04 51.44731 -0.38415 2699 ft 181 kts 182°
2026-05-07 19:04 51.43546 -0.39123 3109 ft 187 kts 217°
2026-05-07 19:05 51.42550 -0.40502 3531 ft 192 kts 220°
2026-05-07 19:05 51.41539 -0.41945 3944 ft 200 kts 220°
2026-05-07 19:05 51.40485 -0.43442 4359 ft 206 kts 220°
2026-05-07 19:05 51.39406 -0.44989 4795 ft 210 kts 226°
2026-05-07 19:06 51.38679 -0.47038 5083 ft 219 kts 261°
2026-05-07 19:06 51.38995 -0.52031 5839 ft 234 kts 280°
2026-05-07 19:06 51.39297 -0.54678 6189 ft 250 kts 280°
2026-05-07 19:07 51.39623 -0.57493 6617 ft 261 kts 280°
2026-05-07 19:07 51.39964 -0.60380 7233 ft 266 kts 280°
2026-05-07 19:07 51.40198 -0.62311 7664 ft 267 kts 280°
2026-05-07 19:07 51.40568 -0.65271 8064 ft 271 kts 280°
2026-05-07 19:08 51.40945 -0.68257 8050 ft 275 kts 281°
2026-05-07 19:08 51.41452 -0.72239 8054 ft 274 kts 281°
2026-05-07 19:08 51.41712 -0.74257 8051 ft 273 kts 281°
2026-05-07 19:08 51.42098 -0.77233 8036 ft 272 kts 281°
2026-05-07 19:09 51.42481 -0.80191 8053 ft 271 kts 281°
2026-05-07 19:09 51.42861 -0.83150 8052 ft 271 kts 281°
2026-05-07 19:09 51.43238 -0.86114 8046 ft 271 kts 281°
2026-05-07 19:09 51.43615 -0.89077 8059 ft 272 kts 281°
2026-05-07 19:10 51.43994 -0.92042 8269 ft 271 kts 281°
2026-05-07 19:10 51.44368 -0.94976 8544 ft 275 kts 281°
2026-05-07 19:10 51.44753 -0.98000 8838 ft 275 kts 280°
2026-05-07 19:10 51.45138 -1.00976 9221 ft 272 kts 280°
2026-05-07 19:11 51.45527 -1.03942 9614 ft 270 kts 280°
2026-05-07 19:11 51.45918 -1.06875 9998 ft 269 kts 280°
2026-05-07 19:11 51.46317 -1.09833 10321 ft 272 kts 280°
2026-05-07 19:11 51.46724 -1.12812 10625 ft 276 kts 282°
2026-05-07 19:12 51.47552 -1.15715 10769 ft 300 kts 303°
2026-05-07 19:12 51.48880 -1.18477 10971 ft 325 kts 306°
2026-05-07 19:12 51.50304 -1.21480 11172 ft 350 kts 304°
2026-05-07 19:12 51.51761 -1.24675 11620 ft 365 kts 304°
2026-05-07 19:13 51.53252 -1.28040 12275 ft 375 kts 303°
2026-05-07 19:13 51.54761 -1.31517 13051 ft 382 kts 302°
2026-05-07 19:13 51.56277 -1.35059 13866 ft 388 kts 302°
2026-05-07 19:13 51.57805 -1.38656 14634 ft 391 kts 302°
2026-05-07 19:14 51.59343 -1.42289 15043 ft 394 kts 302°
2026-05-07 19:14 51.60889 -1.45954 15156 ft 398 kts 302°
2026-05-07 19:14 51.62449 -1.49656 15951 ft 400 kts 302°
2026-05-07 19:14 51.64010 -1.53365 16869 ft 400 kts 302°
2026-05-07 19:15 51.65579 -1.57093 17694 ft 404 kts 302°
2026-05-07 19:15 51.67162 -1.60864 18425 ft 409 kts 302°
2026-05-07 19:15 51.68728 -1.64703 19037 ft 411 kts 298°
2026-05-07 19:15 51.69952 -1.68885 19663 ft 414 kts 288°
2026-05-07 19:16 51.70761 -1.73347 20346 ft 415 kts 280°
2026-05-07 19:16 51.71156 -1.77960 21015 ft 417 kts 274°
2026-05-07 19:16 51.71437 -1.82634 21662 ft 421 kts 274°
2026-05-07 19:16 51.71752 -1.87351 22289 ft 425 kts 275°
2026-05-07 19:17 51.72085 -1.92101 22902 ft 429 kts 275°
2026-05-07 19:17 51.72427 -1.96904 23494 ft 433 kts 275°
2026-05-07 19:17 51.72772 -2.01755 23993 ft 437 kts 275°
2026-05-07 19:17 51.73118 -2.06646 24512 ft 440 kts 275°
2026-05-07 19:18 51.73464 -2.11568 25043 ft 442 kts 275°
2026-05-07 19:18 51.73807 -2.16512 25549 ft 445 kts 275°
2026-05-07 19:18 51.74151 -2.21498 26034 ft 448 kts 274°
2026-05-07 19:18 51.74491 -2.26455 26501 ft 451 kts 274°
2026-05-07 19:19 51.74835 -2.31504 26956 ft 454 kts 274°
2026-05-07 19:19 51.75179 -2.36589 27409 ft 457 kts 274°
2026-05-07 19:19 51.75523 -2.41704 27852 ft 460 kts 274°
2026-05-07 19:19 51.75867 -2.46861 28236 ft 464 kts 274°
2026-05-07 19:20 51.76212 -2.52053 28604 ft 467 kts 274°
2026-05-07 19:20 51.76558 -2.57291 29002 ft 469 kts 274°
2026-05-07 19:20 51.76901 -2.62533 29387 ft 471 kts 274°
2026-05-07 19:20 51.77244 -2.67808 29747 ft 474 kts 274°
2026-05-07 19:21 51.77585 -2.73113 30082 ft 476 kts 274°
2026-05-07 19:21 51.77926 -2.78429 30496 ft 474 kts 274°
2026-05-07 19:21 51.78262 -2.83702 31004 ft 471 kts 274°
2026-05-07 19:21 51.78594 -2.88947 31446 ft 469 kts 274°
2026-05-07 19:22 51.78922 -2.94182 31808 ft 469 kts 274°
2026-05-07 19:22 51.79249 -2.99435 32096 ft 470 kts 274°
2026-05-07 19:22 51.79573 -3.04681 32466 ft 469 kts 273°
2026-05-07 19:22 51.79894 -3.09913 32876 ft 467 kts 273°
2026-05-07 19:23 51.80212 -3.15118 33264 ft 465 kts 273°
2026-05-07 19:23 51.80526 -3.20318 33612 ft 464 kts 273°
2026-05-07 19:23 51.80838 -3.25508 33939 ft 464 kts 273°
2026-05-07 19:23 51.81147 -3.30714 34000 ft 468 kts 273°
2026-05-07 19:24 51.81764 -3.41184 34024 ft 466 kts 273°
2026-05-07 19:24 51.82370 -3.51578 34020 ft 464 kts 273°
2026-05-07 19:25 51.83468 -3.61864 34028 ft 466 kts 279°
2026-05-07 19:25 51.84831 -3.72046 34018 ft 466 kts 279°
2026-05-07 19:26 51.86180 -3.82310 34024 ft 467 kts 279°
2026-05-07 19:26 51.87503 -3.92604 34028 ft 468 kts 278°
2026-05-07 19:27 51.88815 -4.02951 34022 ft 470 kts 278°
2026-05-07 19:27 51.90120 -4.13322 34013 ft 471 kts 278°
2026-05-07 19:28 51.91419 -4.23720 34029 ft 472 kts 278°
2026-05-07 19:28 51.92713 -4.34142 34006 ft 472 kts 278°
2026-05-07 19:29 51.93998 -4.44576 34019 ft 472 kts 278°
2026-05-07 19:29 51.95273 -4.55010 34011 ft 471 kts 278°
2026-05-07 19:30 51.96536 -4.65427 34022 ft 470 kts 278°
2026-05-07 19:30 51.97777 -4.75751 34011 ft 469 kts 278°
2026-05-07 19:31 51.99013 -4.86107 34018 ft 467 kts 278°
2026-05-07 19:31 52.00247 -4.96523 34028 ft 474 kts 278°
2026-05-07 19:32 52.02167 -5.06875 34013 ft 483 kts 289°
2026-05-07 19:32 52.05274 -5.16606 34018 ft 487 kts 298°
2026-05-07 19:33 52.08811 -5.25987 34015 ft 487 kts 298°
2026-05-07 19:33 52.12320 -5.35397 34008 ft 486 kts 298°
2026-05-07 19:34 52.15779 -5.44830 34009 ft 485 kts 298°
2026-05-07 19:34 52.19219 -5.54272 34008 ft 484 kts 297°
2026-05-07 19:35 52.22645 -5.63731 34011 ft 483 kts 296°
2026-05-07 19:35 52.25304 -5.73633 34000 ft 477 kts 284°
2026-05-07 19:36 52.27123 -5.84024 34008 ft 476 kts 283°
2026-05-07 19:36 52.28916 -5.94444 34016 ft 476 kts 283°
2026-05-07 19:37 52.30729 -6.04879 33998 ft 478 kts 283°
2026-05-07 19:37 52.32555 -6.15334 33993 ft 479 kts 283°
2026-05-07 19:38 52.34378 -6.25811 33992 ft 480 kts 283°
2026-05-07 19:38 52.36194 -6.36307 33998 ft 480 kts 283°
2026-05-07 19:39 52.38001 -6.46827 34001 ft 480 kts 283°
2026-05-07 19:39 52.39795 -6.57334 33980 ft 478 kts 283°
2026-05-07 19:40 52.41572 -6.67798 33980 ft 476 kts 283°
2026-05-07 19:40 52.43332 -6.78228 33982 ft 474 kts 283°
2026-05-07 19:41 52.45078 -6.88639 33982 ft 473 kts 283°
2026-05-07 19:41 52.46803 -6.98989 33993 ft 473 kts 283°
2026-05-07 19:42 52.48529 -7.09410 33972 ft 473 kts 283°
2026-05-07 19:42 52.50243 -7.19819 33976 ft 472 kts 283°
2026-05-07 19:43 52.51948 -7.30231 33975 ft 472 kts 283°
2026-05-07 19:43 52.53641 -7.40639 33982 ft 472 kts 283°
2026-05-07 19:44 52.55326 -7.51065 33984 ft 472 kts 283°
2026-05-07 19:44 52.56931 -7.61053 33976 ft 471 kts 283°
2026-05-07 19:45 52.58592 -7.71453 33973 ft 470 kts 283°
2026-05-07 19:45 52.60230 -7.81849 33975 ft 469 kts 282°
2026-05-07 19:46 52.61863 -7.92235 33974 ft 468 kts 282°
2026-05-07 19:46 52.63482 -8.02553 33975 ft 468 kts 282°
2026-05-07 19:47 52.65100 -8.12930 33980 ft 467 kts 282°
2026-05-07 19:47 52.66708 -8.23314 33979 ft 467 kts 282°
2026-05-07 19:48 52.68304 -8.33694 33976 ft 466 kts 282°
2026-05-07 19:48 52.69885 -8.44046 33975 ft 466 kts 282°
2026-05-07 19:49 52.71461 -8.54424 33977 ft 466 kts 281°
2026-05-07 19:49 52.73025 -8.64792 33972 ft 466 kts 281°
2026-05-07 19:50 52.74578 -8.75157 33976 ft 465 kts 281°
2026-05-07 19:50 52.76113 -8.85468 33973 ft 465 kts 281°
2026-05-07 19:51 52.77645 -8.95829 33974 ft 465 kts 281°
2026-05-07 19:51 52.79170 -9.06209 33973 ft 464 kts 280°
2026-05-07 19:52 52.80684 -9.16579 33976 ft 464 kts 280°
2026-05-07 19:52 52.81935 -9.25202 33968 ft 463 kts 280°
2026-05-07 19:53 52.83428 -9.35558 33973 ft 462 kts 280°
2026-05-07 19:53 52.84908 -9.45894 33968 ft 462 kts 280°
2026-05-07 19:54 52.86377 -9.56223 33967 ft 461 kts 280°
2026-05-07 19:54 52.87839 -9.66566 33985 ft 461 kts 279°
2026-05-07 19:55 52.89288 -9.76895 33963 ft 459 kts 279°
2026-05-07 19:55 52.90722 -9.87180 33957 ft 458 kts 279°
2026-05-07 19:56 52.92143 -9.97449 33974 ft 457 kts 279°
2026-05-07 19:56 52.93552 -10.07705 33971 ft 456 kts 279°
2026-05-07 19:57 52.94943 -10.17896 33968 ft 456 kts 279°
2026-05-07 19:57 52.96335 -10.28159 33972 ft 456 kts 279°
2026-05-07 19:58 52.97715 -10.38415 33967 ft 455 kts 279°
2026-05-07 19:58 52.99084 -10.48652 33971 ft 454 kts 279°
2026-05-07 19:59 53.00443 -10.58897 33963 ft 454 kts 279°
2026-05-07 19:59 53.01791 -10.69130 33975 ft 453 kts 278°
2026-05-07 20:00 53.03131 -10.79370 33979 ft 453 kts 278°
2026-05-07 20:00 53.04453 -10.89545 33977 ft 453 kts 278°
2026-05-07 20:01 53.05775 -10.99797 33981 ft 453 kts 278°
2026-05-07 20:01 53.07090 -11.10071 33974 ft 454 kts 278°
2026-05-07 20:02 53.08395 -11.20337 33981 ft 454 kts 278°
2026-05-07 20:02 53.09699 -11.30606 33992 ft 454 kts 278°
2026-05-07 20:03 53.10994 -11.40876 33976 ft 452 kts 278°
2026-05-07 20:03 53.12264 -11.51096 33977 ft 450 kts 278°
2026-05-07 20:04 53.13511 -11.61224 33980 ft 449 kts 278°
2026-05-07 20:04 53.14758 -11.71414 33981 ft 448 kts 278°
2026-05-07 20:05 53.15993 -11.81587 34024 ft 448 kts 278°
2026-05-07 20:05 53.17225 -11.91804 33993 ft 450 kts 278°
2026-05-07 20:06 53.18450 -12.02043 33979 ft 450 kts 277°
2026-05-07 20:06 53.19667 -12.12296 33981 ft 451 kts 277°
2026-05-07 20:07 53.20869 -12.22495 33988 ft 451 kts 277°
2026-05-07 20:07 53.22070 -12.32766 34001 ft 451 kts 277°
2026-05-07 20:08 53.23262 -12.43045 33993 ft 451 kts 277°
2026-05-07 20:08 53.24444 -12.53318 33988 ft 450 kts 277°
2026-05-07 20:09 53.25615 -12.63580 33992 ft 449 kts 277°
2026-05-07 20:10 53.27352 -12.78952 33997 ft 449 kts 277°
2026-05-07 20:10 53.28497 -12.89195 33996 ft 448 kts 277°
2026-05-07 20:11 53.29635 -12.99456 34009 ft 450 kts 277°
2026-05-07 20:11 53.30770 -13.09784 34007 ft 452 kts 277°
2026-05-07 20:12 53.31900 -13.20146 34006 ft 454 kts 277°
2026-05-07 20:12 53.33025 -13.30548 34004 ft 454 kts 277°
2026-05-07 20:13 53.34134 -13.40891 34004 ft 455 kts 277°
2026-05-07 20:13 53.35242 -13.51312 34018 ft 455 kts 277°
2026-05-07 20:14 53.36341 -13.61739 34007 ft 455 kts 277°
2026-05-07 20:14 53.37430 -13.72169 34011 ft 454 kts 277°
2026-05-07 20:15 53.38510 -13.82594 34014 ft 454 kts 276°
2026-05-07 20:15 53.39578 -13.93008 34013 ft 453 kts 276°
2026-05-07 20:16 53.40620 -14.03233 34655 ft 427 kts 276°
2026-05-07 20:16 53.41123 -14.08242 34358 ft 440 kts 276°
2026-05-07 20:16 53.41636 -14.13362 34244 ft 449 kts 276°
2026-05-07 20:17 53.42678 -14.23811 34108 ft 458 kts 276°
2026-05-07 20:17 53.43723 -14.34349 34034 ft 458 kts 276°
2026-05-07 20:18 53.44754 -14.44849 34026 ft 455 kts 276°
2026-05-07 20:18 53.45771 -14.55318 34020 ft 453 kts 276°
2026-05-07 20:19 53.46598 -14.63990 34024 ft 453 kts 275°
2026-05-07 20:19 53.47758 -14.76133 34029 ft 454 kts 276°
2026-05-07 20:20 53.48763 -14.86722 34034 ft 462 kts 276°
2026-05-07 20:20 53.49759 -14.97456 34037 ft 468 kts 275°
2026-05-07 20:21 53.50224 -15.08348 34040 ft 468 kts 269°
2026-05-07 20:21 53.50398 -15.19305 34036 ft 471 kts 269°
2026-05-07 20:22 53.50580 -15.30257 34039 ft 473 kts 269°
2026-05-07 20:22 53.50772 -15.41330 34055 ft 475 kts 269°
2026-05-07 20:23 53.50962 -15.52432 34050 ft 476 kts 269°
2026-05-07 20:23 53.51112 -15.61675 34035 ft 476 kts 269°
2026-05-07 20:24 53.51310 -15.74687 34038 ft 476 kts 269°
2026-05-07 20:24 53.51468 -15.85812 34045 ft 476 kts 269°
2026-05-07 20:25 53.51615 -15.96880 34041 ft 476 kts 269°
2026-05-07 20:25 53.51752 -16.07996 34038 ft 476 kts 269°
2026-05-07 20:26 53.51879 -16.19114 34041 ft 475 kts 268°
2026-05-07 20:26 53.51995 -16.30216 34054 ft 475 kts 268°
2026-05-07 20:27 53.52101 -16.41316 34053 ft 475 kts 268°
2026-05-07 20:27 53.52196 -16.52416 34050 ft 474 kts 268°
2026-05-07 20:28 53.52281 -16.63512 34048 ft 474 kts 268°
2026-05-07 20:28 53.52356 -16.74520 34063 ft 474 kts 268°
2026-05-07 20:29 53.52420 -16.85612 34055 ft 475 kts 268°
2026-05-07 20:29 53.52475 -16.96708 34060 ft 475 kts 268°
2026-05-07 20:30 53.52519 -17.07819 34060 ft 476 kts 268°
2026-05-07 20:30 53.52553 -17.18940 34073 ft 477 kts 268°
2026-05-07 20:31 53.52577 -17.30102 34070 ft 477 kts 268°
2026-05-07 20:31 53.52590 -17.41265 34065 ft 478 kts 269°
2026-05-07 20:32 53.52593 -17.52446 34069 ft 479 kts 269°
2026-05-07 20:32 53.52586 -17.63579 34068 ft 479 kts 268°
2026-05-07 20:33 53.52568 -17.74787 34074 ft 480 kts 268°
2026-05-07 20:33 53.52540 -17.86000 34072 ft 480 kts 269°
2026-05-07 20:34 53.52501 -17.97224 34078 ft 480 kts 268°
2026-05-07 20:34 53.52452 -18.08443 34082 ft 480 kts 268°
2026-05-07 20:35 53.52392 -18.19661 34081 ft 480 kts 268°
2026-05-07 20:35 53.52322 -18.30869 34082 ft 480 kts 268°
2026-05-07 20:36 53.52241 -18.42084 34085 ft 480 kts 268°
2026-05-07 20:36 53.52149 -18.53302 34109 ft 481 kts 268°
2026-05-07 20:36 53.52100 -18.58865 34236 ft 482 kts 268°
2026-05-07 20:37 53.52048 -18.64496 34415 ft 481 kts 268°
2026-05-07 20:37 53.51993 -18.70114 34601 ft 481 kts 268°
2026-05-07 20:37 53.51935 -18.75727 34775 ft 480 kts 268°
2026-05-07 20:37 53.51875 -18.81347 34977 ft 480 kts 268°
2026-05-07 20:38 53.51812 -18.86954 35148 ft 480 kts 268°
2026-05-07 20:38 53.51747 -18.92557 35353 ft 479 kts 268°
2026-05-07 20:38 53.51679 -18.98142 35560 ft 478 kts 269°
2026-05-07 20:38 53.51609 -19.03717 35814 ft 476 kts 269°
2026-05-07 20:39 53.51536 -19.09264 36046 ft 474 kts 269°
2026-05-07 20:39 53.51385 -19.20277 36105 ft 467 kts 269°
2026-05-07 20:40 53.51227 -19.31072 36097 ft 464 kts 268°
2026-05-07 20:40 53.51059 -19.41904 36107 ft 463 kts 268°
2026-05-07 20:41 53.50882 -19.52718 36099 ft 463 kts 269°
2026-05-07 20:41 53.50695 -19.63556 36111 ft 465 kts 269°
2026-05-07 20:42 53.50532 -19.72593 36108 ft 466 kts 268°
2026-05-07 20:42 53.50326 -19.83505 36122 ft 468 kts 268°
2026-05-07 20:43 53.50112 -19.94446 36125 ft 469 kts 268°
2026-05-07 20:43 53.49742 -20.05407 36109 ft 469 kts 265°
2026-05-07 20:44 53.49101 -20.16322 36128 ft 470 kts 265°
2026-05-07 20:44 53.48431 -20.27240 36120 ft 470 kts 265°
2026-05-07 20:45 53.47769 -20.38166 36120 ft 470 kts 265°
2026-05-07 20:45 53.47111 -20.49077 36125 ft 470 kts 265°
2026-05-07 20:46 53.46446 -20.59998 36113 ft 469 kts 265°
2026-05-07 20:46 53.45772 -20.70894 36143 ft 470 kts 265°
2026-05-07 20:47 53.45101 -20.81739 36142 ft 471 kts 265°
2026-05-07 20:47 53.44412 -20.92669 36135 ft 471 kts 265°
2026-05-07 20:48 53.43703 -21.03614 36148 ft 472 kts 265°
2026-05-07 20:48 53.42981 -21.14575 36125 ft 473 kts 265°
2026-05-07 20:49 53.42254 -21.25467 36141 ft 473 kts 265°
2026-05-07 20:49 53.41512 -21.36445 36145 ft 474 kts 265°
2026-05-07 20:50 53.40760 -21.47427 36135 ft 474 kts 265°
2026-05-07 20:50 53.39997 -21.58420 36149 ft 475 kts 265°
2026-05-07 20:51 53.39223 -21.69425 36145 ft 475 kts 265°
2026-05-07 20:51 53.38439 -21.80409 36148 ft 475 kts 265°
2026-05-07 20:52 53.37652 -21.91310 36153 ft 474 kts 265°
2026-05-07 20:52 53.36849 -22.02283 36160 ft 474 kts 265°
2026-05-07 20:53 53.36035 -22.13252 36143 ft 474 kts 265°
2026-05-07 20:53 53.35212 -22.24215 36152 ft 474 kts 265°
2026-05-07 20:54 53.34378 -22.35181 36162 ft 475 kts 265°
2026-05-07 20:54 53.33534 -22.46149 36167 ft 475 kts 265°
2026-05-07 20:55 53.32685 -22.57051 36168 ft 476 kts 265°
2026-05-07 20:55 53.31819 -22.68026 36154 ft 476 kts 265°
2026-05-07 20:56 53.30943 -22.79001 36168 ft 476 kts 265°
2026-05-07 20:56 53.30056 -22.89979 36182 ft 477 kts 265°
2026-05-07 20:57 53.29158 -23.00971 36178 ft 477 kts 265°
2026-05-07 20:57 53.28249 -23.11967 36178 ft 478 kts 265°
2026-05-07 20:58 53.27328 -23.22975 36172 ft 478 kts 265°
2026-05-07 20:58 53.26397 -23.33976 36184 ft 478 kts 265°
2026-05-07 20:59 53.25461 -23.44919 36185 ft 479 kts 265°
2026-05-07 20:59 53.24509 -23.55927 36186 ft 479 kts 265°
2026-05-07 21:00 53.23546 -23.66944 36191 ft 479 kts 265°
2026-05-07 21:00 53.22573 -23.77939 36188 ft 478 kts 265°
2026-05-07 21:01 53.21592 -23.88915 36191 ft 478 kts 265°
2026-05-07 21:01 53.20601 -23.99888 36197 ft 478 kts 265°
2026-05-07 21:02 53.19604 -24.10805 36195 ft 478 kts 265°
2026-05-07 21:02 53.18586 -24.21837 36181 ft 478 kts 265°
2026-05-07 21:03 53.17569 -24.32741 36197 ft 478 kts 265°
2026-05-07 21:03 53.16538 -24.43694 36208 ft 478 kts 265°
2026-05-07 21:04 53.15496 -24.54642 36208 ft 478 kts 265°
2026-05-07 21:04 53.14499 -24.65021 36213 ft 478 kts 265°
2026-05-07 21:05 53.13437 -24.75965 36215 ft 478 kts 265°
2026-05-07 21:05 53.12365 -24.86906 36214 ft 478 kts 265°
2026-05-07 21:06 53.11290 -24.97772 36211 ft 479 kts 265°
2026-05-07 21:06 53.10197 -25.08712 36231 ft 479 kts 265°
2026-05-07 21:07 53.09091 -25.19670 36231 ft 480 kts 265°
2026-05-07 21:07 53.07977 -25.30604 36216 ft 479 kts 265°
2026-05-07 21:08 53.06853 -25.41538 36225 ft 480 kts 265°
2026-05-07 21:08 53.05719 -25.52466 36229 ft 480 kts 265°
2026-05-07 21:09 53.04573 -25.63401 36230 ft 480 kts 265°
2026-05-07 21:09 53.03417 -25.74331 36199 ft 480 kts 265°
2026-05-07 21:10 53.02258 -25.85187 36227 ft 479 kts 265°
2026-05-07 21:10 53.01084 -25.96095 36233 ft 479 kts 265°
2026-05-07 21:11 52.99901 -26.06981 36247 ft 479 kts 265°
2026-05-07 21:11 52.98108 -26.23303 36239 ft 479 kts 265°
2026-05-07 21:12 52.96900 -26.34164 36240 ft 478 kts 265°
2026-05-07 21:12 52.95695 -26.44926 36244 ft 477 kts 265°
2026-05-07 21:13 52.94473 -26.55742 36241 ft 477 kts 265°
2026-05-07 21:13 52.93240 -26.66558 36247 ft 477 kts 265°
2026-05-07 21:14 52.91998 -26.77361 36247 ft 477 kts 265°
2026-05-07 21:14 52.90746 -26.88164 36255 ft 477 kts 265°
2026-05-07 21:15 52.89484 -26.98959 36256 ft 477 kts 265°
2026-05-07 21:15 52.88208 -27.09781 36259 ft 478 kts 265°
2026-05-07 21:16 52.86933 -27.20505 36261 ft 478 kts 265°
2026-05-07 21:16 52.85639 -27.31287 36258 ft 477 kts 265°
2026-05-07 21:17 52.84340 -27.42052 36257 ft 477 kts 265°
2026-05-07 21:17 52.83030 -27.52809 36264 ft 477 kts 265°
2026-05-07 21:18 52.81711 -27.63557 36263 ft 477 kts 265°
2026-05-07 21:18 52.80381 -27.74298 36272 ft 477 kts 265°
2026-05-07 21:19 52.79044 -27.85007 36265 ft 475 kts 266°
2026-05-07 21:19 52.77701 -27.95694 36269 ft 475 kts 266°
2026-05-07 21:20 52.76357 -28.06305 36278 ft 474 kts 266°
2026-05-07 21:20 52.74997 -28.16963 36277 ft 474 kts 266°
2026-05-07 21:21 52.73627 -28.27613 36243 ft 474 kts 266°
2026-05-07 21:21 52.72250 -28.38231 36269 ft 473 kts 266°
2026-05-07 21:22 52.70866 -28.48829 36279 ft 472 kts 266°
2026-05-07 21:22 52.69473 -28.59422 36284 ft 472 kts 266°
2026-05-07 21:23 52.68082 -28.69919 36285 ft 472 kts 266°
2026-05-07 21:23 52.66671 -28.80481 36280 ft 470 kts 267°
2026-05-07 21:24 52.65257 -28.90994 36285 ft 469 kts 267°
2026-05-07 21:24 52.63836 -29.01485 36291 ft 469 kts 267°
2026-05-07 21:25 52.62411 -29.11940 36291 ft 468 kts 267°
2026-05-07 21:25 52.60976 -29.22389 36288 ft 468 kts 266°
2026-05-07 21:26 52.59532 -29.32817 36290 ft 466 kts 267°
2026-05-07 21:26 52.58085 -29.43195 36303 ft 464 kts 267°
2026-05-07 21:27 52.56647 -29.53460 36307 ft 463 kts 267°
2026-05-07 21:27 52.55190 -29.63783 36306 ft 463 kts 267°
2026-05-07 21:28 52.53726 -29.74081 36252 ft 462 kts 267°
2026-05-07 21:28 52.52506 -29.82615 36297 ft 462 kts 267°
2026-05-07 21:29 52.50789 -29.94559 36312 ft 463 kts 266°
2026-05-07 21:29 52.49449 -30.04852 36309 ft 458 kts 270°
2026-05-07 21:30 52.48555 -30.13433 36322 ft 458 kts 270°
2026-05-07 21:30 52.47494 -30.23761 36265 ft 459 kts 270°
2026-05-07 21:31 52.46412 -30.34084 36313 ft 460 kts 270°
2026-05-07 21:31 52.45307 -30.44433 36322 ft 461 kts 270°
2026-05-07 21:32 52.44188 -30.54793 36320 ft 462 kts 269°
2026-05-07 21:32 52.43057 -30.65170 36322 ft 463 kts 269°
2026-05-07 21:33 52.41915 -30.75553 36282 ft 463 kts 269°
2026-05-07 21:33 52.40770 -30.85891 36325 ft 463 kts 269°
2026-05-07 21:34 52.39610 -30.96279 36334 ft 463 kts 269°
2026-05-07 21:34 52.38439 -31.06668 36330 ft 464 kts 269°
2026-05-07 21:35 52.37262 -31.17031 36328 ft 464 kts 269°
2026-05-07 21:35 52.36068 -31.27449 36286 ft 464 kts 269°
2026-05-07 21:36 52.34877 -31.37762 36324 ft 464 kts 269°
2026-05-07 21:36 52.33668 -31.48146 36336 ft 464 kts 269°
2026-05-07 21:37 52.32448 -31.58550 36338 ft 464 kts 269°
2026-05-07 21:37 52.31225 -31.68885 36339 ft 465 kts 269°
2026-05-07 21:38 52.29987 -31.79271 36341 ft 465 kts 269°
2026-05-07 21:38 52.28745 -31.89604 36340 ft 465 kts 268°
2026-05-07 21:39 52.27490 -31.99970 36341 ft 465 kts 268°
2026-05-07 21:39 52.26225 -32.10325 36343 ft 465 kts 268°
2026-05-07 21:40 52.24950 -32.20690 36347 ft 465 kts 268°
2026-05-07 21:40 52.23668 -32.31033 36331 ft 465 kts 268°
2026-05-07 21:41 52.22386 -32.41292 36340 ft 465 kts 268°
2026-05-07 21:41 52.21089 -32.51608 36350 ft 465 kts 268°
2026-05-07 21:42 52.19780 -32.61938 36347 ft 465 kts 268°
2026-05-07 21:42 52.18461 -32.72255 36355 ft 465 kts 268°
2026-05-07 21:43 52.17136 -32.82548 36344 ft 463 kts 268°
2026-05-07 21:43 52.15806 -32.92806 36351 ft 462 kts 267°
2026-05-07 21:44 52.14468 -33.03051 36353 ft 462 kts 267°
2026-05-07 21:44 52.13124 -33.13281 36350 ft 462 kts 267°
2026-05-07 21:45 52.11779 -33.23435 36350 ft 462 kts 267°
2026-05-07 21:45 52.10417 -33.33645 36352 ft 461 kts 267°
2026-05-07 21:46 52.09047 -33.43846 36354 ft 462 kts 267°
2026-05-07 21:46 52.07665 -33.54060 36356 ft 462 kts 266°
2026-05-07 21:47 52.06275 -33.64264 36356 ft 463 kts 266°
2026-05-07 21:47 52.04875 -33.74468 36356 ft 463 kts 266°
2026-05-07 21:48 52.03466 -33.84662 36347 ft 462 kts 266°
2026-05-07 21:48 52.02059 -33.94776 36350 ft 462 kts 266°
2026-05-07 21:49 52.00637 -34.04935 36354 ft 462 kts 266°
2026-05-07 21:49 51.99205 -34.15091 36354 ft 462 kts 266°
2026-05-07 21:50 51.97766 -34.25231 36319 ft 461 kts 265°
2026-05-07 21:50 51.96319 -34.35352 36352 ft 459 kts 265°
2026-05-07 21:51 51.94871 -34.45422 36358 ft 459 kts 265°
2026-05-07 21:51 51.93414 -34.55485 36359 ft 458 kts 265°
2026-05-07 21:52 51.91948 -34.65551 36358 ft 458 kts 265°
2026-05-07 21:52 51.90475 -34.75596 36318 ft 458 kts 265°
2026-05-07 21:53 51.89004 -34.85560 36352 ft 458 kts 265°
2026-05-07 21:53 51.87514 -34.95595 36361 ft 459 kts 265°
2026-05-07 21:54 51.86012 -35.05643 36359 ft 460 kts 264°
2026-05-07 21:54 51.84498 -35.15705 36359 ft 460 kts 264°
2026-05-07 21:55 51.83221 -35.24144 36320 ft 461 kts 264°
2026-05-07 21:55 51.81440 -35.35834 36353 ft 461 kts 264°
2026-05-07 21:56 51.79897 -35.45894 36358 ft 461 kts 264°
2026-05-07 21:56 51.78343 -35.55968 36356 ft 462 kts 264°
2026-05-07 21:57 51.76780 -35.66034 36356 ft 462 kts 264°
2026-05-07 21:57 51.75208 -35.76097 36349 ft 461 kts 263°
2026-05-07 21:58 51.73639 -35.86077 36350 ft 461 kts 263°
2026-05-07 21:58 51.72053 -35.96107 36358 ft 461 kts 263°
2026-05-07 21:59 51.70455 -36.06149 36356 ft 462 kts 263°
2026-05-07 21:59 51.68851 -36.16170 36356 ft 462 kts 263°
2026-05-07 22:00 51.67237 -36.26193 36356 ft 461 kts 263°
2026-05-07 22:00 51.65625 -36.36143 36359 ft 461 kts 263°
2026-05-07 22:01 51.63996 -36.46145 36360 ft 462 kts 262°
2026-05-07 22:01 51.62355 -36.56153 36358 ft 462 kts 262°
2026-05-07 22:02 51.60703 -36.66172 36357 ft 462 kts 262°
2026-05-07 22:02 51.59044 -36.76174 36356 ft 463 kts 262°
2026-05-07 22:03 51.57386 -36.86112 36356 ft 463 kts 262°
2026-05-07 22:03 51.55709 -36.96105 36356 ft 463 kts 262°
2026-05-07 22:04 51.54024 -37.06093 36353 ft 463 kts 262°
2026-05-07 22:04 51.52330 -37.16068 36318 ft 463 kts 262°
2026-05-07 22:05 51.50631 -37.26015 36345 ft 461 kts 261°
2026-05-07 22:05 51.48926 -37.35947 36343 ft 461 kts 261°
2026-05-07 22:06 51.47216 -37.45850 36348 ft 460 kts 261°
2026-05-07 22:06 51.45511 -37.55671 36346 ft 460 kts 261°
2026-05-07 22:07 51.43788 -37.65542 36327 ft 460 kts 261°
2026-05-07 22:07 51.42056 -37.75407 36344 ft 460 kts 261°
2026-05-07 22:08 51.40315 -37.85271 36349 ft 460 kts 260°
2026-05-07 22:08 51.38563 -37.95140 36349 ft 461 kts 260°
2026-05-07 22:09 51.36800 -38.05021 36349 ft 461 kts 260°
2026-05-07 22:09 51.35039 -38.14830 36341 ft 462 kts 260°
2026-05-07 22:10 51.33254 -38.24721 36344 ft 463 kts 259°
2026-05-07 22:10 51.31456 -38.34633 36345 ft 464 kts 259°
2026-05-07 22:11 51.29646 -38.44554 36341 ft 465 kts 259°
2026-05-07 22:11 51.27825 -38.54485 36342 ft 466 kts 259°
2026-05-07 22:12 51.26006 -38.64345 36325 ft 466 kts 259°
2026-05-07 22:12 51.24166 -38.74272 36337 ft 466 kts 259°
2026-05-07 22:13 51.22314 -38.84204 36337 ft 467 kts 258°
2026-05-07 22:13 51.20453 -38.94139 36337 ft 467 kts 258°
2026-05-07 22:14 51.18584 -39.04060 36311 ft 467 kts 258°
2026-05-07 22:14 51.16706 -39.13976 36330 ft 467 kts 258°
2026-05-07 22:15 51.14819 -39.23888 36332 ft 467 kts 258°
2026-05-07 22:15 51.13243 -39.32125 36328 ft 468 kts 258°
2026-05-07 22:16 51.11339 -39.42034 36327 ft 468 kts 258°
2026-05-07 22:16 51.09425 -39.51942 36300 ft 469 kts 257°
2026-05-07 22:17 51.07184 -39.63473 36326 ft 470 kts 257°
2026-05-07 22:17 51.05558 -39.71800 36332 ft 471 kts 257°
2026-05-07 22:18 51.02627 -39.86722 36316 ft 472 kts 257°
2026-05-07 22:19 51.00659 -39.96683 36288 ft 473 kts 257°
2026-05-07 22:19 50.99223 -40.06742 36321 ft 469 kts 264°
2026-05-07 22:20 50.98193 -40.16973 36313 ft 469 kts 264°
2026-05-07 22:20 50.97144 -40.27200 36313 ft 469 kts 264°
2026-05-07 22:21 50.96055 -40.37407 36312 ft 469 kts 263°
2026-05-07 22:21 50.94963 -40.47559 36310 ft 469 kts 263°
2026-05-07 22:22 50.93861 -40.57765 36307 ft 469 kts 263°
2026-05-07 22:22 50.92751 -40.67965 36309 ft 470 kts 263°
2026-05-07 22:23 50.91619 -40.78187 36309 ft 470 kts 262°
2026-05-07 22:23 50.90479 -40.88398 36310 ft 470 kts 262°
2026-05-07 22:24 50.89337 -40.98616 36310 ft 471 kts 262°
2026-05-07 22:24 50.88189 -41.08829 36298 ft 471 kts 262°
2026-05-07 22:25 50.87028 -41.19056 36303 ft 472 kts 262°
2026-05-07 22:25 50.85865 -41.29210 36302 ft 472 kts 262°
2026-05-07 22:26 50.84685 -41.39435 36307 ft 472 kts 262°
2026-05-07 22:26 50.83496 -41.49653 36301 ft 472 kts 262°
2026-05-07 22:27 50.82297 -41.59870 36301 ft 472 kts 262°
2026-05-07 22:27 50.81090 -41.70074 36302 ft 472 kts 261°
2026-05-07 22:28 50.79874 -41.80278 36299 ft 472 kts 261°
2026-05-07 22:28 50.78650 -41.90471 36299 ft 472 kts 261°
2026-05-07 22:29 50.77416 -42.00660 36302 ft 472 kts 261°
2026-05-07 22:29 50.76175 -42.10840 36291 ft 472 kts 261°
2026-05-07 22:30 50.74923 -42.21026 36298 ft 473 kts 261°
2026-05-07 22:30 50.73667 -42.31163 36298 ft 473 kts 261°
2026-05-07 22:31 50.72393 -42.41374 36294 ft 474 kts 261°
2026-05-07 22:31 50.71110 -42.51582 36294 ft 474 kts 261°
2026-05-07 22:32 50.69817 -42.61789 36290 ft 475 kts 260°
2026-05-07 22:32 50.68510 -42.72001 36293 ft 475 kts 260°
2026-05-07 22:33 50.67184 -42.82218 36292 ft 476 kts 260°
2026-05-07 22:33 50.65859 -42.92440 36300 ft 476 kts 259°
2026-05-07 22:34 50.64528 -43.02654 36281 ft 475 kts 259°
2026-05-07 22:34 50.63193 -43.12826 36280 ft 473 kts 259°
2026-05-07 22:35 50.61859 -43.22909 36287 ft 473 kts 259°
2026-05-07 22:35 50.60508 -43.33038 36288 ft 472 kts 259°
2026-05-07 22:36 50.59150 -43.43159 36288 ft 472 kts 259°
2026-05-07 22:36 50.57784 -43.53262 36291 ft 472 kts 259°
2026-05-07 22:37 50.56407 -43.63382 36286 ft 472 kts 258°
2026-05-07 22:37 50.55022 -43.73484 36288 ft 473 kts 258°
2026-05-07 22:38 50.53626 -43.83598 36284 ft 473 kts 258°
2026-05-07 22:38 50.52230 -43.93644 36295 ft 473 kts 258°
2026-05-07 22:39 50.50819 -44.03732 36278 ft 472 kts 258°
2026-05-07 22:39 50.49401 -44.13799 36284 ft 471 kts 257°
2026-05-07 22:40 50.47976 -44.23845 36286 ft 471 kts 257°
2026-05-07 22:40 50.46545 -44.33871 36280 ft 470 kts 257°
2026-05-07 22:41 50.45105 -44.43889 36283 ft 470 kts 257°
2026-05-07 22:41 50.43659 -44.53891 36284 ft 470 kts 257°
2026-05-07 22:42 50.42213 -44.63822 36277 ft 470 kts 257°
2026-05-07 22:42 50.40774 -44.73827 36285 ft 470 kts 258°
2026-05-07 22:43 50.39326 -44.83832 36283 ft 471 kts 257°
2026-05-07 22:43 50.37844 -44.93818 36286 ft 470 kts 257°
2026-05-07 22:44 50.36349 -45.03779 36283 ft 469 kts 257°
2026-05-07 22:44 50.34852 -45.13716 36276 ft 468 kts 256°
2026-05-07 22:45 50.33353 -45.23619 36274 ft 467 kts 256°
2026-05-07 22:45 50.31859 -45.33433 36280 ft 466 kts 256°
2026-05-07 22:46 50.30348 -45.43299 36281 ft 466 kts 256°
2026-05-07 22:46 50.28829 -45.53157 36282 ft 466 kts 256°
2026-05-07 22:47 50.27288 -45.63024 36276 ft 466 kts 255°
2026-05-07 22:47 50.25717 -45.72855 36275 ft 466 kts 255°
2026-05-07 22:48 50.24168 -45.82691 36293 ft 466 kts 254°
2026-05-07 22:48 50.22622 -45.92450 36277 ft 465 kts 254°
2026-05-07 22:49 50.21066 -46.02246 36269 ft 464 kts 254°
2026-05-07 22:49 50.19508 -46.12011 36264 ft 463 kts 254°
2026-05-07 22:50 50.17942 -46.21766 36277 ft 463 kts 253°
2026-05-07 22:50 50.16369 -46.31499 36274 ft 463 kts 253°
2026-05-07 22:51 50.14786 -46.41231 36263 ft 463 kts 253°
2026-05-07 22:51 50.13206 -46.50896 36264 ft 463 kts 253°
2026-05-07 22:52 50.11607 -46.60623 36264 ft 463 kts 253°
2026-05-07 22:52 50.10000 -46.70338 36261 ft 463 kts 253°
2026-05-07 22:53 50.08383 -46.80060 36258 ft 464 kts 253°
2026-05-07 22:53 50.06757 -46.89780 36258 ft 463 kts 253°
2026-05-07 22:54 50.05126 -46.99475 36257 ft 463 kts 253°
2026-05-07 22:54 50.03484 -47.09181 36247 ft 463 kts 252°
2026-05-07 22:55 50.01835 -47.18867 36253 ft 463 kts 252°
2026-05-07 22:55 50.00188 -47.28497 36247 ft 464 kts 252°
2026-05-07 22:56 49.98518 -47.38203 36248 ft 464 kts 252°
2026-05-07 22:56 49.96842 -47.47890 36243 ft 464 kts 252°
2026-05-07 22:57 49.95158 -47.57575 36235 ft 465 kts 252°
2026-05-07 22:57 49.93463 -47.67267 36250 ft 465 kts 252°
2026-05-07 22:58 49.91773 -47.76876 36242 ft 465 kts 252°
2026-05-07 22:58 49.90064 -47.86546 36236 ft 464 kts 252°
2026-05-07 22:59 49.88349 -47.96195 36236 ft 464 kts 252°
2026-05-07 22:59 49.86627 -48.05830 36234 ft 463 kts 252°
2026-05-07 23:00 49.84898 -48.15454 36234 ft 463 kts 252°
2026-05-07 23:00 49.83165 -48.25050 36233 ft 463 kts 251°
2026-05-07 23:01 49.81420 -48.34658 36234 ft 463 kts 251°
2026-05-07 23:01 49.79668 -48.44261 36225 ft 463 kts 251°
2026-05-07 23:02 49.77922 -48.53776 36250 ft 462 kts 251°
2026-05-07 23:02 49.76161 -48.63337 36224 ft 460 kts 251°
2026-05-07 23:03 49.74401 -48.72831 36219 ft 458 kts 251°
2026-05-07 23:03 49.72641 -48.82277 36217 ft 456 kts 251°
2026-05-07 23:04 49.71175 -48.90102 36217 ft 455 kts 251°
2026-05-07 23:04 49.69408 -48.99499 36209 ft 455 kts 251°
2026-05-07 23:05 49.67348 -49.10402 36208 ft 454 kts 251°
2026-05-07 23:05 49.65867 -49.18194 36204 ft 454 kts 251°
2026-05-07 23:06 49.64084 -49.27539 36193 ft 454 kts 251°
2026-05-07 23:06 49.62294 -49.36879 36185 ft 454 kts 250°
2026-05-07 23:07 49.60497 -49.46209 36202 ft 454 kts 251°
2026-05-07 23:07 49.58694 -49.55532 36186 ft 453 kts 251°
2026-05-07 23:08 49.56894 -49.64787 36161 ft 453 kts 251°
2026-05-07 23:08 49.55082 -49.74069 36163 ft 452 kts 251°
2026-05-07 23:09 49.53266 -49.83346 36159 ft 452 kts 251°
2026-05-07 23:09 49.51446 -49.92623 36158 ft 452 kts 251°
2026-05-07 23:10 49.49573 -50.01859 36134 ft 452 kts 250°
2026-05-07 23:10 49.47427 -50.10891 36137 ft 453 kts 248°
2026-05-07 23:11 49.45186 -50.19945 36137 ft 454 kts 248°
2026-05-07 23:11 49.42958 -50.29035 36129 ft 454 kts 248°
2026-05-07 23:12 49.40745 -50.38137 36130 ft 455 kts 248°
2026-05-07 23:12 49.38530 -50.47239 36116 ft 455 kts 248°
2026-05-07 23:13 49.36313 -50.56310 36111 ft 453 kts 248°
2026-05-07 23:13 49.34094 -50.65349 36111 ft 452 kts 248°
2026-05-07 23:14 49.31870 -50.74366 36102 ft 451 kts 248°
2026-05-07 23:14 49.29672 -50.83314 36103 ft 451 kts 249°
2026-05-07 23:15 49.27484 -50.92306 36096 ft 450 kts 249°
2026-05-07 23:15 49.25254 -51.01255 36098 ft 449 kts 248°
2026-05-07 23:16 49.23011 -51.10170 36102 ft 449 kts 248°
2026-05-07 23:16 49.20768 -51.19067 36084 ft 448 kts 248°
2026-05-07 23:17 49.18521 -51.27960 36082 ft 448 kts 248°
2026-05-07 23:17 49.16269 -51.36838 36082 ft 448 kts 248°
2026-05-07 23:18 49.14010 -51.45714 36080 ft 448 kts 248°
2026-05-07 23:18 49.11742 -51.54589 36068 ft 448 kts 248°
2026-05-07 23:19 49.09468 -51.63452 36068 ft 448 kts 248°
2026-05-07 23:19 49.07188 -51.72304 36064 ft 448 kts 248°
2026-05-07 23:20 49.04920 -51.81076 36062 ft 448 kts 248°
2026-05-07 23:20 49.02628 -51.89912 36057 ft 447 kts 248°
2026-05-07 23:21 49.00334 -51.98721 36057 ft 447 kts 248°
2026-05-07 23:21 48.98008 -52.07520 36055 ft 447 kts 248°
2026-05-07 23:22 48.95658 -52.16272 36063 ft 446 kts 248°
2026-05-07 23:22 48.93311 -52.24986 36059 ft 444 kts 248°
2026-05-07 23:23 48.90974 -52.33647 36042 ft 442 kts 247°
2026-05-07 23:23 48.88658 -52.42209 36036 ft 440 kts 247°
2026-05-07 23:24 48.86329 -52.50787 36037 ft 439 kts 247°
2026-05-07 23:24 48.83999 -52.59337 36016 ft 437 kts 247°
2026-05-07 23:25 48.81671 -52.67848 36018 ft 436 kts 247°
2026-05-07 23:25 48.79341 -52.76336 36015 ft 435 kts 247°
2026-05-07 23:26 48.77006 -52.84815 36012 ft 436 kts 247°
2026-05-07 23:26 48.74663 -52.93289 35991 ft 436 kts 247°
2026-05-07 23:27 48.71156 -53.05912 35981 ft 434 kts 247°
2026-05-07 23:27 48.68808 -53.14330 35983 ft 433 kts 247°
2026-05-07 23:28 48.66457 -53.22730 36008 ft 433 kts 247°
2026-05-07 23:28 48.64104 -53.31107 35982 ft 432 kts 246°
2026-05-07 23:29 48.61748 -53.39463 35966 ft 432 kts 246°
2026-05-07 23:29 48.59396 -53.47779 35958 ft 432 kts 246°
2026-05-07 23:30 48.57037 -53.56090 35952 ft 432 kts 246°
2026-05-07 23:30 48.54666 -53.64412 35956 ft 431 kts 246°
2026-05-07 23:31 48.52286 -53.72735 35951 ft 432 kts 246°
2026-05-07 23:31 48.49905 -53.81036 35955 ft 431 kts 247°
2026-05-07 23:32 48.47520 -53.89323 35929 ft 430 kts 247°
2026-05-07 23:32 48.45139 -53.97565 35952 ft 429 kts 247°
2026-05-07 23:33 48.42752 -54.05804 35936 ft 428 kts 247°
2026-05-07 23:33 48.40378 -54.13966 35934 ft 428 kts 247°
2026-05-07 23:34 48.37992 -54.22145 35937 ft 425 kts 246°
2026-05-07 23:34 48.35620 -54.30247 35933 ft 421 kts 246°
2026-05-07 23:35 48.33266 -54.38263 35922 ft 418 kts 246°
2026-05-07 23:35 48.30915 -54.46240 35932 ft 417 kts 246°
2026-05-07 23:36 48.28560 -54.54204 35918 ft 417 kts 246°
2026-05-07 23:36 48.26213 -54.62117 35924 ft 417 kts 246°
2026-05-07 23:37 48.23851 -54.70055 35915 ft 416 kts 246°
2026-05-07 23:37 48.21486 -54.77978 35907 ft 416 kts 246°
2026-05-07 23:38 48.19114 -54.85900 35899 ft 415 kts 246°
2026-05-07 23:38 48.16741 -54.93798 35868 ft 415 kts 246°
2026-05-07 23:39 48.14377 -55.01637 35858 ft 415 kts 246°
2026-05-07 23:39 48.11999 -55.09501 35866 ft 414 kts 245°
2026-05-07 23:40 48.09619 -55.17348 35855 ft 413 kts 245°
2026-05-07 23:40 48.07241 -55.25165 35824 ft 413 kts 245°
2026-05-07 23:41 48.04857 -55.32975 35818 ft 412 kts 245°
2026-05-07 23:41 48.02472 -55.40763 35819 ft 412 kts 245°
2026-05-07 23:42 48.00098 -55.48490 35812 ft 412 kts 245°
2026-05-07 23:42 47.97703 -55.56262 35811 ft 412 kts 245°
2026-05-07 23:43 47.95300 -55.64037 35796 ft 413 kts 245°
2026-05-07 23:43 47.92890 -55.71811 35801 ft 413 kts 245°
2026-05-07 23:44 47.90472 -55.79583 35785 ft 412 kts 245°
2026-05-07 23:44 47.88058 -55.87321 35787 ft 410 kts 245°
2026-05-07 23:45 47.85651 -55.95011 35791 ft 409 kts 245°
2026-05-07 23:45 47.83246 -56.02676 35797 ft 409 kts 244°
2026-05-07 23:46 47.80824 -56.10366 35770 ft 410 kts 244°
2026-05-07 23:46 47.78417 -56.17987 35791 ft 408 kts 245°
2026-05-07 23:47 47.76029 -56.25525 35774 ft 398 kts 245°
2026-05-07 23:47 47.73672 -56.32943 35777 ft 398 kts 245°
2026-05-07 23:48 47.71306 -56.40370 35790 ft 398 kts 245°
2026-05-07 23:48 47.68933 -56.47796 35787 ft 398 kts 244°
2026-05-07 23:49 47.66549 -56.55232 35824 ft 399 kts 244°
2026-05-07 23:49 47.64169 -56.62637 35804 ft 396 kts 244°
2026-05-07 23:50 47.61805 -56.69967 35828 ft 392 kts 244°
2026-05-07 23:50 47.59473 -56.77180 35818 ft 390 kts 244°
2026-05-07 23:51 47.57133 -56.84400 35882 ft 388 kts 244°
2026-05-07 23:51 47.54791 -56.91606 35845 ft 389 kts 244°
2026-05-07 23:52 47.52446 -56.98793 35834 ft 387 kts 244°
2026-05-07 23:52 47.50112 -57.05930 35849 ft 384 kts 244°
2026-05-07 23:53 47.48162 -57.11880 35851 ft 383 kts 244°
2026-05-07 23:53 47.45840 -57.18945 35846 ft 382 kts 244°
2026-05-07 23:54 47.43534 -57.25944 35847 ft 382 kts 244°
2026-05-07 23:54 47.41206 -57.32988 35842 ft 381 kts 244°
2026-05-07 23:55 47.38880 -57.40008 35824 ft 380 kts 244°
2026-05-07 23:55 47.36555 -57.47004 35816 ft 379 kts 244°
2026-05-07 23:56 47.34233 -57.53975 35816 ft 378 kts 244°
2026-05-07 23:56 47.31910 -57.60929 35805 ft 378 kts 244°
2026-05-07 23:57 47.29581 -57.67883 35802 ft 378 kts 244°
2026-05-07 23:57 47.27252 -57.74817 35802 ft 377 kts 244°
2026-05-07 23:58 47.24925 -57.81725 35781 ft 376 kts 244°
2026-05-07 23:58 47.22615 -57.88568 35780 ft 375 kts 244°
2026-05-07 23:59 47.20288 -57.95441 35772 ft 374 kts 244°
2026-05-07 23:59 47.17966 -58.02284 35772 ft 374 kts 244°
2026-05-08 00:00 47.15639 -58.09118 35761 ft 373 kts 244°
2026-05-08 00:00 47.13323 -58.15908 35757 ft 371 kts 244°
2026-05-08 00:01 47.11010 -58.22670 35749 ft 369 kts 244°
2026-05-08 00:01 47.08716 -58.29359 35750 ft 369 kts 244°
2026-05-08 00:02 47.06401 -58.36090 35745 ft 368 kts 244°
2026-05-08 00:02 47.04095 -58.42779 35741 ft 368 kts 244°
2026-05-08 00:03 47.01787 -58.49459 35737 ft 367 kts 244°
2026-05-08 00:03 46.99483 -58.56108 35757 ft 366 kts 243°
2026-05-08 00:04 46.97170 -58.62767 35740 ft 367 kts 243°
2026-05-08 00:04 46.94852 -58.69422 35733 ft 367 kts 243°
2026-05-08 00:05 46.92525 -58.76085 35725 ft 367 kts 243°
2026-05-08 00:05 46.90208 -58.82704 35710 ft 366 kts 243°
2026-05-08 00:06 46.87881 -58.89338 35716 ft 365 kts 243°
2026-05-08 00:06 46.85577 -58.95886 35721 ft 364 kts 243°
2026-05-08 00:07 46.83246 -59.02496 35720 ft 363 kts 243°
2026-05-08 00:07 46.80928 -59.09052 35712 ft 363 kts 243°
2026-05-08 00:08 46.78621 -59.15564 35712 ft 363 kts 243°
2026-05-08 00:08 46.76296 -59.22108 35711 ft 363 kts 243°
2026-05-08 00:09 46.73967 -59.28645 35711 ft 363 kts 243°
2026-05-08 00:09 46.71635 -59.35176 35708 ft 363 kts 243°
2026-05-08 00:10 46.69292 -59.41724 35708 ft 365 kts 242°
2026-05-08 00:10 46.66936 -59.48290 35703 ft 366 kts 242°
2026-05-08 00:11 46.64571 -59.54865 35704 ft 366 kts 242°
2026-05-08 00:11 46.62221 -59.61376 35686 ft 356 kts 242°
2026-05-08 00:12 46.59940 -59.67652 35690 ft 348 kts 242°
2026-05-08 00:12 46.57700 -59.73824 35688 ft 347 kts 242°
2026-05-08 00:13 46.55451 -59.80017 35687 ft 346 kts 242°
2026-05-08 00:13 46.53199 -59.86205 35688 ft 346 kts 242°
2026-05-08 00:14 46.50947 -59.92379 35678 ft 346 kts 242°
2026-05-08 00:14 46.48691 -59.98551 35680 ft 346 kts 242°
2026-05-08 00:15 46.46431 -60.04716 35683 ft 346 kts 242°
2026-05-08 00:15 46.44169 -60.10876 35686 ft 346 kts 242°
2026-05-08 00:16 46.41920 -60.16984 35690 ft 346 kts 242°
2026-05-08 00:16 46.39653 -60.23127 35671 ft 346 kts 241°
2026-05-08 00:17 46.37383 -60.29266 35681 ft 345 kts 241°
2026-05-08 00:17 46.35109 -60.35400 35676 ft 345 kts 241°
2026-05-08 00:18 46.32834 -60.41524 35672 ft 345 kts 241°
2026-05-08 00:18 46.30556 -60.47640 35661 ft 345 kts 241°
2026-05-08 00:19 46.28286 -60.53723 35664 ft 346 kts 241°
2026-05-08 00:19 46.25995 -60.59849 35642 ft 346 kts 241°
2026-05-08 00:20 46.23706 -60.65954 35655 ft 345 kts 241°
2026-05-08 00:20 46.21411 -60.72062 35661 ft 346 kts 241°
2026-05-08 00:21 46.19124 -60.78134 35668 ft 346 kts 241°
2026-05-08 00:21 46.16820 -60.84237 35663 ft 346 kts 241°
2026-05-08 00:22 46.14513 -60.90336 35669 ft 346 kts 241°
2026-05-08 00:22 46.12199 -60.96440 35706 ft 347 kts 240°
2026-05-08 00:23 46.09883 -61.02538 35661 ft 346 kts 240°
2026-05-08 00:23 46.07571 -61.08608 35663 ft 345 kts 240°
2026-05-08 00:24 46.05266 -61.14660 35661 ft 344 kts 240°
2026-05-08 00:24 46.02967 -61.20700 35655 ft 344 kts 240°
2026-05-08 00:25 46.00674 -61.26688 35661 ft 344 kts 240°
2026-05-08 00:25 45.98362 -61.32704 35662 ft 344 kts 240°
2026-05-08 00:26 45.96043 -61.38724 35707 ft 345 kts 240°
2026-05-08 00:26 45.94876 -61.41748 35900 ft 346 kts 240°
2026-05-08 00:26 45.93711 -61.44766 36250 ft 344 kts 240°
2026-05-08 00:27 45.92553 -61.47761 36627 ft 342 kts 240°
2026-05-08 00:27 45.91399 -61.50742 36956 ft 341 kts 240°
2026-05-08 00:27 45.90248 -61.53714 37240 ft 340 kts 240°
2026-05-08 00:27 45.89095 -61.56687 37520 ft 339 kts 241°
2026-05-08 00:28 45.86802 -61.62592 37655 ft 341 kts 240°
2026-05-08 00:28 45.84497 -61.68512 37680 ft 337 kts 240°
2026-05-08 00:29 45.82214 -61.74365 37686 ft 335 kts 240°
2026-05-08 00:29 45.79939 -61.80185 37699 ft 334 kts 240°
2026-05-08 00:30 45.77663 -61.85994 37692 ft 334 kts 240°
2026-05-08 00:30 45.75384 -61.91798 37689 ft 334 kts 240°
2026-05-08 00:31 45.73111 -61.97575 37677 ft 335 kts 239°
2026-05-08 00:31 45.70811 -62.03408 37686 ft 337 kts 239°
2026-05-08 00:32 45.68500 -62.09256 37689 ft 338 kts 239°
2026-05-08 00:32 45.66174 -62.15131 37690 ft 340 kts 239°
2026-05-08 00:33 45.63838 -62.21020 37693 ft 341 kts 239°
2026-05-08 00:33 45.61494 -62.26915 37698 ft 341 kts 239°
2026-05-08 00:34 45.59147 -62.32807 37697 ft 341 kts 239°
2026-05-08 00:34 45.56797 -62.38691 37696 ft 341 kts 239°
2026-05-08 00:35 45.54460 -62.44530 37700 ft 341 kts 239°
2026-05-08 00:35 45.52108 -62.50396 37699 ft 340 kts 239°
2026-05-08 00:36 45.49753 -62.56258 37708 ft 340 kts 239°
2026-05-08 00:36 45.47395 -62.62112 37691 ft 340 kts 239°
2026-05-08 00:37 45.45037 -62.67955 37709 ft 340 kts 239°
2026-05-08 00:38 45.41498 -62.76703 37696 ft 339 kts 239°
2026-05-08 00:38 45.39152 -62.82485 37712 ft 339 kts 238°
2026-05-08 00:39 45.36787 -62.88302 37693 ft 339 kts 238°
2026-05-08 00:39 45.34422 -62.94109 37691 ft 339 kts 238°
2026-05-08 00:40 45.32451 -62.98938 37685 ft 340 kts 238°
2026-05-08 00:40 45.30074 -63.04750 37705 ft 340 kts 238°
2026-05-08 00:41 45.27687 -63.10576 37708 ft 341 kts 238°
2026-05-08 00:41 45.25293 -63.16407 37706 ft 342 kts 238°
2026-05-08 00:42 45.22893 -63.22240 37704 ft 342 kts 238°
2026-05-08 00:42 45.20485 -63.28078 37702 ft 343 kts 238°
2026-05-08 00:43 45.18084 -63.33890 37709 ft 344 kts 237°
2026-05-08 00:43 45.15664 -63.39735 37706 ft 344 kts 237°
2026-05-08 00:44 45.13239 -63.45579 37704 ft 344 kts 237°
2026-05-08 00:44 45.10810 -63.51422 37710 ft 344 kts 237°
2026-05-08 00:45 45.08381 -63.57252 37707 ft 344 kts 237°
2026-05-08 00:45 45.05947 -63.63082 37707 ft 344 kts 237°
2026-05-08 00:46 45.03507 -63.68914 37710 ft 344 kts 237°
2026-05-08 00:46 45.01070 -63.74728 37710 ft 344 kts 237°
2026-05-08 00:47 44.98628 -63.80542 37707 ft 344 kts 237°
2026-05-08 00:47 44.96182 -63.86352 37708 ft 344 kts 237°
2026-05-08 00:48 44.93730 -63.92164 37669 ft 344 kts 237°
2026-05-08 00:48 44.91269 -63.97958 37709 ft 344 kts 236°
2026-05-08 00:49 44.88797 -64.03773 37718 ft 346 kts 236°
2026-05-08 00:49 44.86337 -64.09568 37709 ft 347 kts 236°
2026-05-08 00:50 44.83856 -64.15405 37714 ft 347 kts 236°
2026-05-08 00:50 44.81367 -64.21237 37702 ft 347 kts 236°
2026-05-08 00:51 44.78869 -64.27058 37689 ft 347 kts 236°
2026-05-08 00:51 44.76378 -64.32871 37697 ft 347 kts 236°
2026-05-08 00:52 44.73883 -64.38691 37697 ft 347 kts 236°
2026-05-08 00:52 44.71385 -64.44505 37700 ft 348 kts 236°
2026-05-08 00:53 44.68881 -64.50322 37695 ft 348 kts 236°
2026-05-08 00:53 44.66389 -64.56099 37688 ft 348 kts 236°
2026-05-08 00:54 44.63861 -64.61945 37703 ft 348 kts 235°
2026-05-08 00:54 44.61356 -64.67727 37710 ft 349 kts 235°
2026-05-08 00:55 44.58826 -64.73557 37733 ft 351 kts 235°
2026-05-08 00:55 44.56276 -64.79417 37718 ft 352 kts 235°
2026-05-08 00:56 44.53720 -64.85283 37714 ft 353 kts 235°
2026-05-08 00:56 44.51154 -64.91158 37718 ft 353 kts 235°
2026-05-08 00:57 44.48582 -64.97034 37733 ft 354 kts 235°
2026-05-08 00:57 44.46023 -65.02869 37737 ft 354 kts 235°
2026-05-08 00:58 44.43436 -65.08758 37727 ft 355 kts 235°
2026-05-08 00:58 44.40847 -65.14636 37742 ft 355 kts 235°
2026-05-08 00:59 44.38255 -65.20510 37730 ft 355 kts 234°
2026-05-08 00:59 44.35658 -65.26385 37737 ft 355 kts 234°
2026-05-08 01:00 44.33056 -65.32257 37745 ft 356 kts 234°
2026-05-08 01:00 44.30448 -65.38130 37746 ft 356 kts 234°
2026-05-08 01:01 44.27832 -65.44012 37758 ft 358 kts 234°
2026-05-08 01:01 44.25213 -65.49885 37738 ft 359 kts 234°
2026-05-08 01:02 44.22566 -65.55811 37754 ft 360 kts 234°
2026-05-08 01:02 44.19911 -65.61744 37748 ft 361 kts 234°
2026-05-08 01:03 44.17240 -65.67697 37752 ft 363 kts 234°
2026-05-08 01:03 44.14559 -65.73664 37763 ft 363 kts 234°
2026-05-08 01:04 44.11874 -65.79625 37759 ft 363 kts 234°
2026-05-08 01:04 44.09185 -65.85585 37751 ft 363 kts 234°
2026-05-08 01:05 44.06495 -65.91534 37741 ft 363 kts 234°
2026-05-08 01:05 44.03822 -65.97431 37750 ft 362 kts 234°
2026-05-08 01:06 44.01131 -66.03359 37761 ft 362 kts 234°
2026-05-08 01:06 43.98438 -66.09276 37786 ft 362 kts 234°
2026-05-08 01:07 43.95730 -66.15214 37752 ft 365 kts 234°
2026-05-08 01:07 43.93000 -66.21189 37753 ft 368 kts 234°
2026-05-08 01:08 43.90247 -66.27203 37750 ft 370 kts 234°
2026-05-08 01:08 43.87480 -66.33241 37755 ft 371 kts 235°
2026-05-08 01:09 43.84719 -66.39312 37743 ft 372 kts 235°
2026-05-08 01:09 43.81934 -66.45371 37756 ft 373 kts 235°
2026-05-08 01:10 43.79154 -66.51387 37761 ft 373 kts 235°
2026-05-08 01:10 43.76354 -66.57434 37783 ft 373 kts 235°
2026-05-08 01:11 43.73555 -66.63470 37775 ft 372 kts 235°
2026-05-08 01:11 43.70758 -66.69492 37770 ft 371 kts 235°
2026-05-08 01:12 43.67961 -66.75500 37857 ft 372 kts 235°
2026-05-08 01:12 43.65160 -66.81504 37799 ft 376 kts 235°
2026-05-08 01:13 43.62312 -66.87598 37794 ft 379 kts 235°
2026-05-08 01:13 43.59438 -66.93737 37795 ft 382 kts 235°
2026-05-08 01:14 43.56545 -66.99902 37789 ft 384 kts 235°
2026-05-08 01:14 43.53791 -67.06224 37800 ft 386 kts 237°
2026-05-08 01:15 43.51115 -67.12631 37794 ft 386 kts 237°
2026-05-08 01:15 43.48444 -67.19034 37802 ft 385 kts 237°
2026-05-08 01:16 43.45766 -67.25421 37801 ft 384 kts 237°
2026-05-08 01:16 43.43104 -67.31787 37802 ft 384 kts 238°
2026-05-08 01:17 43.40433 -67.38146 37802 ft 383 kts 238°
2026-05-08 01:17 43.37761 -67.44443 37802 ft 383 kts 238°
2026-05-08 01:18 43.35067 -67.50769 37804 ft 383 kts 237°
2026-05-08 01:18 43.32369 -67.57093 37778 ft 383 kts 237°
2026-05-08 01:19 43.29656 -67.63405 37803 ft 384 kts 237°
2026-05-08 01:19 43.26945 -67.69723 37811 ft 384 kts 237°
2026-05-08 01:20 43.24249 -67.76008 37808 ft 385 kts 237°
2026-05-08 01:20 43.21526 -67.82343 37815 ft 386 kts 237°
2026-05-08 01:21 43.18797 -67.88678 37786 ft 386 kts 237°
2026-05-08 01:21 43.16064 -67.95006 37806 ft 386 kts 237°
2026-05-08 01:22 43.13321 -68.01345 37816 ft 388 kts 238°
2026-05-08 01:22 43.10559 -68.07711 37816 ft 390 kts 238°
2026-05-08 01:23 43.07784 -68.14096 37823 ft 391 kts 238°
2026-05-08 01:23 43.05002 -68.20481 37825 ft 391 kts 238°
2026-05-08 01:24 43.02210 -68.26875 37829 ft 391 kts 238°
2026-05-08 01:24 42.99417 -68.33259 37826 ft 391 kts 238°
2026-05-08 01:25 42.96620 -68.39639 37816 ft 391 kts 238°
2026-05-08 01:25 42.94294 -68.44931 37829 ft 391 kts 238°
2026-05-08 01:26 42.91493 -68.51294 37820 ft 390 kts 238°
2026-05-08 01:26 42.88692 -68.57642 37826 ft 390 kts 238°
2026-05-08 01:27 42.85892 -68.63974 37822 ft 390 kts 238°
2026-05-08 01:27 42.83085 -68.70310 37826 ft 390 kts 238°
2026-05-08 01:28 42.80279 -68.76630 37829 ft 390 kts 238°
2026-05-08 01:28 42.77468 -68.82947 37829 ft 390 kts 238°
2026-05-08 01:29 42.74665 -68.89232 37844 ft 391 kts 238°
2026-05-08 01:29 42.71836 -68.95561 37828 ft 392 kts 238°
2026-05-08 01:30 42.69001 -69.01890 37833 ft 392 kts 238°
2026-05-08 01:30 42.66162 -69.08216 37805 ft 392 kts 238°
2026-05-08 01:31 42.63332 -69.14541 37827 ft 391 kts 238°
2026-05-08 01:31 42.60511 -69.20812 37881 ft 391 kts 239°
2026-05-08 01:32 42.57659 -69.27126 37850 ft 392 kts 238°
2026-05-08 01:32 42.54801 -69.33436 37839 ft 392 kts 238°
2026-05-08 01:33 42.51947 -69.39726 37963 ft 386 kts 239°
2026-05-08 01:33 42.50533 -69.42843 37840 ft 390 kts 238°
2026-05-08 01:33 42.49108 -69.45976 37838 ft 392 kts 238°
2026-05-08 01:34 42.46254 -69.52234 37839 ft 394 kts 238°
2026-05-08 01:34 42.43361 -69.58570 37850 ft 396 kts 238°
2026-05-08 01:35 42.40461 -69.64908 37839 ft 397 kts 238°
2026-05-08 01:35 42.37554 -69.71250 37811 ft 395 kts 239°
2026-05-08 01:36 42.34658 -69.77553 37830 ft 394 kts 239°
2026-05-08 01:36 42.31763 -69.83840 37838 ft 393 kts 238°
2026-05-08 01:37 42.28869 -69.90113 37841 ft 394 kts 239°
2026-05-08 01:37 42.25970 -69.96383 37839 ft 394 kts 239°
2026-05-08 01:38 42.23085 -70.02609 37839 ft 393 kts 239°
2026-05-08 01:38 42.20161 -70.08908 37816 ft 394 kts 239°
2026-05-08 01:39 42.17266 -70.15130 37839 ft 394 kts 239°
2026-05-08 01:39 42.14344 -70.21398 37880 ft 395 kts 239°
2026-05-08 01:40 42.11416 -70.27667 37681 ft 394 kts 239°
2026-05-08 01:40 42.09946 -70.30803 37419 ft 398 kts 239°
2026-05-08 01:40 42.08470 -70.33951 37308 ft 398 kts 239°
2026-05-08 01:40 42.06985 -70.37118 37172 ft 401 kts 239°
2026-05-08 01:41 42.05493 -70.40301 36891 ft 401 kts 239°
2026-05-08 01:41 42.04058 -70.43490 36643 ft 396 kts 243°
2026-05-08 01:41 42.02913 -70.46838 36388 ft 391 kts 246°
2026-05-08 01:41 42.01881 -70.50193 36141 ft 387 kts 247°
2026-05-08 01:42 42.00875 -70.53537 35899 ft 385 kts 247°
2026-05-08 01:42 41.99869 -70.56863 35703 ft 383 kts 248°
2026-05-08 01:42 41.98856 -70.60169 35468 ft 382 kts 247°
2026-05-08 01:42 41.97846 -70.63432 35118 ft 383 kts 247°
2026-05-08 01:43 41.96814 -70.66732 34727 ft 383 kts 247°
2026-05-08 01:43 41.95779 -70.70025 34337 ft 381 kts 247°
2026-05-08 01:43 41.94742 -70.73311 33928 ft 382 kts 247°
2026-05-08 01:43 41.93714 -70.76559 33448 ft 371 kts 247°
2026-05-08 01:44 41.92715 -70.79713 32959 ft 365 kts 247°
2026-05-08 01:44 41.91723 -70.82842 32499 ft 364 kts 248°
2026-05-08 01:44 41.90731 -70.85963 32036 ft 363 kts 248°
2026-05-08 01:44 41.89743 -70.89073 31666 ft 361 kts 248°
2026-05-08 01:45 41.88760 -70.92160 31215 ft 356 kts 248°
2026-05-08 01:45 41.87792 -70.95197 30772 ft 352 kts 248°
2026-05-08 01:45 41.86840 -70.98183 30436 ft 344 kts 248°
2026-05-08 01:45 41.85907 -71.01103 30201 ft 336 kts 248°
2026-05-08 01:46 41.84992 -71.03964 29937 ft 333 kts 248°
2026-05-08 01:46 41.84079 -71.06820 29584 ft 335 kts 248°
2026-05-08 01:46 41.83154 -71.09711 29283 ft 339 kts 248°
2026-05-08 01:46 41.82232 -71.12589 28986 ft 341 kts 248°
2026-05-08 01:47 41.81296 -71.15504 28674 ft 339 kts 248°
2026-05-08 01:47 41.80366 -71.18396 28372 ft 337 kts 248°
2026-05-08 01:47 41.79440 -71.21275 28078 ft 336 kts 248°
2026-05-08 01:48 41.77596 -71.27000 27517 ft 333 kts 247°
2026-05-08 01:48 41.76679 -71.29843 27239 ft 332 kts 247°
2026-05-08 01:48 41.75766 -71.32671 26961 ft 330 kts 247°
2026-05-08 01:48 41.74859 -71.35478 26721 ft 328 kts 247°
2026-05-08 01:49 41.73954 -71.38272 26491 ft 325 kts 247°
2026-05-08 01:49 41.73041 -71.41029 26258 ft 322 kts 244°
2026-05-08 01:49 41.71796 -71.43521 26020 ft 324 kts 233°
2026-05-08 01:49 41.70174 -71.45631 25789 ft 326 kts 226°
2026-05-08 01:50 41.68431 -71.47580 25563 ft 327 kts 225°
2026-05-08 01:50 41.66675 -71.49508 25350 ft 327 kts 224°
2026-05-08 01:50 41.64933 -71.51417 25143 ft 328 kts 224°
2026-05-08 01:50 41.63148 -71.53380 24921 ft 329 kts 224°
2026-05-08 01:51 41.61409 -71.55302 24724 ft 329 kts 224°
2026-05-08 01:51 41.59644 -71.57256 24546 ft 329 kts 224°
2026-05-08 01:51 41.57883 -71.59211 24329 ft 329 kts 224°
2026-05-08 01:51 41.56123 -71.61164 24125 ft 329 kts 224°
2026-05-08 01:52 41.54370 -71.63111 23967 ft 325 kts 224°
2026-05-08 01:52 41.52644 -71.65025 23889 ft 321 kts 224°
2026-05-08 01:52 41.50930 -71.66927 23871 ft 320 kts 224°
2026-05-08 01:52 41.49213 -71.68835 23866 ft 323 kts 224°
2026-05-08 01:53 41.47476 -71.70764 23874 ft 325 kts 224°
2026-05-08 01:53 41.45733 -71.72696 23870 ft 326 kts 224°
2026-05-08 01:53 41.43989 -71.74626 23868 ft 326 kts 224°
2026-05-08 01:53 41.42244 -71.76557 23871 ft 326 kts 224°
2026-05-08 01:54 41.40500 -71.78485 23869 ft 325 kts 224°
2026-05-08 01:54 41.38757 -71.80411 23870 ft 325 kts 224°
2026-05-08 01:54 41.37015 -71.82335 23847 ft 325 kts 224°
2026-05-08 01:54 41.35269 -71.84263 23646 ft 327 kts 224°
2026-05-08 01:55 41.33540 -71.86170 23441 ft 325 kts 224°
2026-05-08 01:55 41.31805 -71.88081 23198 ft 322 kts 224°
2026-05-08 01:55 41.30085 -71.89972 22932 ft 319 kts 224°
2026-05-08 01:55 41.28383 -71.91844 22731 ft 316 kts 224°
2026-05-08 01:56 41.26693 -71.93701 22488 ft 314 kts 224°
2026-05-08 01:56 41.25018 -71.95540 22238 ft 312 kts 224°
2026-05-08 01:56 41.23351 -71.97371 22002 ft 310 kts 224°
2026-05-08 01:56 41.21686 -71.99197 21710 ft 310 kts 224°
2026-05-08 01:57 41.20026 -72.01018 21410 ft 310 kts 223°
2026-05-08 01:57 41.18365 -72.02838 21103 ft 309 kts 223°
2026-05-08 01:57 41.16704 -72.04659 20825 ft 309 kts 223°
2026-05-08 01:57 41.15044 -72.06476 20553 ft 309 kts 223°
2026-05-08 01:58 41.13382 -72.08292 20283 ft 308 kts 223°
2026-05-08 01:58 41.11749 -72.10076 20012 ft 307 kts 224°
2026-05-08 01:58 41.10303 -72.12093 19718 ft 300 kts 236°
2026-05-08 01:58 41.09288 -72.14500 19464 ft 299 kts 246°
2026-05-08 01:59 41.08592 -72.17095 19201 ft 299 kts 249°
2026-05-08 01:59 41.07953 -72.19721 18953 ft 299 kts 250°
2026-05-08 01:59 41.07323 -72.22349 18693 ft 299 kts 250°
2026-05-08 01:59 41.06694 -72.24964 18441 ft 298 kts 250°
2026-05-08 02:00 41.06060 -72.27577 18208 ft 297 kts 249°
2026-05-08 02:00 41.05422 -72.30179 17906 ft 297 kts 249°
2026-05-08 02:00 41.04782 -72.32775 17606 ft 296 kts 250°
2026-05-08 02:00 41.04138 -72.35379 17308 ft 296 kts 250°
2026-05-08 02:01 41.03503 -72.37936 17006 ft 295 kts 250°
2026-05-08 02:01 41.02861 -72.40515 16718 ft 295 kts 250°
2026-05-08 02:01 41.02217 -72.43097 16431 ft 295 kts 250°
2026-05-08 02:01 41.01575 -72.45669 16146 ft 294 kts 250°
2026-05-08 02:02 41.00933 -72.48236 15867 ft 294 kts 250°
2026-05-08 02:02 41.00292 -72.50796 15600 ft 293 kts 251°
2026-05-08 02:02 40.99650 -72.53357 15322 ft 293 kts 251°
2026-05-08 02:02 40.99010 -72.55908 15051 ft 292 kts 251°
2026-05-08 02:03 40.98370 -72.58457 14781 ft 291 kts 251°
2026-05-08 02:03 40.97731 -72.60997 14541 ft 291 kts 252°
2026-05-08 02:03 40.97092 -72.63537 14275 ft 291 kts 252°
2026-05-08 02:03 40.96455 -72.66065 14112 ft 287 kts 252°
2026-05-08 02:04 40.95834 -72.68528 14056 ft 276 kts 252°
2026-05-08 02:04 40.95239 -72.70885 14016 ft 264 kts 252°
2026-05-08 02:04 40.94662 -72.73167 14015 ft 263 kts 252°
2026-05-08 02:04 40.94081 -72.75462 14020 ft 262 kts 252°
2026-05-08 02:05 40.93503 -72.77743 13959 ft 261 kts 251°
2026-05-08 02:05 40.92649 -72.79873 13606 ft 268 kts 234°
2026-05-08 02:05 40.91281 -72.81600 13211 ft 275 kts 222°
2026-05-08 02:05 40.89766 -72.83060 12788 ft 269 kts 221°
2026-05-08 02:06 40.88306 -72.84526 12379 ft 258 kts 230°
2026-05-08 02:06 40.87373 -72.86507 11977 ft 255 kts 250°
2026-05-08 02:06 40.86803 -72.88680 11593 ft 245 kts 254°
2026-05-08 02:06 40.86313 -72.90808 11179 ft 238 kts 255°
2026-05-08 02:07 40.85837 -72.92890 10691 ft 236 kts 255°
2026-05-08 02:07 40.85358 -72.94950 10200 ft 233 kts 256°
2026-05-08 02:07 40.84871 -72.96988 9707 ft 232 kts 255°
2026-05-08 02:07 40.84384 -72.99007 9171 ft 230 kts 255°
2026-05-08 02:08 40.83899 -73.01021 8637 ft 229 kts 255°
2026-05-08 02:08 40.83406 -73.03060 8135 ft 238 kts 255°
2026-05-08 02:08 40.82895 -73.05192 7645 ft 248 kts 255°
2026-05-08 02:08 40.82371 -73.07398 7195 ft 254 kts 255°
2026-05-08 02:09 40.81849 -73.09602 7039 ft 249 kts 255°
2026-05-08 02:09 40.81343 -73.11754 7026 ft 249 kts 255°
2026-05-08 02:09 40.80877 -73.13951 6963 ft 246 kts 263°
2026-05-08 02:09 40.80721 -73.16191 6982 ft 246 kts 267°
2026-05-08 02:10 40.80597 -73.18456 6977 ft 247 kts 267°
2026-05-08 02:10 40.80469 -73.20691 6964 ft 240 kts 267°
2026-05-08 02:10 40.80343 -73.22860 6879 ft 236 kts 267°
2026-05-08 02:10 40.80220 -73.24998 6702 ft 231 kts 267°
2026-05-08 02:11 40.80098 -73.27103 6357 ft 226 kts 267°
2026-05-08 02:11 40.80060 -73.29134 5998 ft 217 kts 275°
2026-05-08 02:11 40.80195 -73.31090 5654 ft 211 kts 276°
2026-05-08 02:11 40.80379 -73.33023 5321 ft 216 kts 277°
2026-05-08 02:12 40.80506 -73.34336 5124 ft 219 kts 277°
2026-05-08 02:12 40.80695 -73.36310 5039 ft 215 kts 277°
2026-05-08 02:12 40.80885 -73.38280 5011 ft 216 kts 277°
2026-05-08 02:12 40.81072 -73.40193 4992 ft 206 kts 277°
2026-05-08 02:13 40.81254 -73.42077 4709 ft 207 kts 277°
2026-05-08 02:13 40.81486 -73.44541 4287 ft 203 kts 277°
2026-05-08 02:13 40.81599 -73.45787 4054 ft 201 kts 277°
2026-05-08 02:13 40.81755 -73.47590 3723 ft 193 kts 277°
2026-05-08 02:14 40.81897 -73.49323 3363 ft 189 kts 277°
2026-05-08 02:14 40.82025 -73.51025 3098 ft 182 kts 277°
2026-05-08 02:14 40.82121 -73.52664 3045 ft 184 kts 270°
2026-05-08 02:14 40.81785 -73.54296 3020 ft 185 kts 250°
2026-05-08 02:15 40.81298 -73.55876 2991 ft 185 kts 252°
2026-05-08 02:15 40.80903 -73.57485 2998 ft 184 kts 256°
2026-05-08 02:15 40.80531 -73.59107 2997 ft 185 kts 256°
2026-05-08 02:15 40.80167 -73.60752 2993 ft 188 kts 256°
2026-05-08 02:16 40.79796 -73.62417 2992 ft 190 kts 250°
2026-05-08 02:16 40.78983 -73.63768 3018 ft 192 kts 218°
2026-05-08 02:16 40.77897 -73.64836 3003 ft 196 kts 218°
2026-05-08 02:16 40.76775 -73.65847 2830 ft 194 kts 213°
2026-05-08 02:17 40.75670 -73.66736 2580 ft 183 kts 212°
2026-05-08 02:17 40.74618 -73.67564 2345 ft 167 kts 212°
2026-05-08 02:17 40.73667 -73.68310 2111 ft 152 kts 212°
2026-05-08 02:17 40.72760 -73.69023 1920 ft 152 kts 212°
2026-05-08 02:18 40.71853 -73.69737 1722 ft 152 kts 212°
2026-05-08 02:18 40.70952 -73.70444 1500 ft 150 kts 212°
2026-05-08 02:18 40.70061 -73.71144 1308 ft 149 kts 212°
2026-05-08 02:18 40.69183 -73.71833 1109 ft 149 kts 212°
2026-05-08 02:19 40.68298 -73.72528 910 ft 148 kts 211°
2026-05-08 02:19 40.67427 -73.73212 727 ft 143 kts 210°
2026-05-08 02:19 40.66581 -73.73879 546 ft 140 kts 211°
2026-05-08 02:19 40.65768 -73.74523 361 ft 135 kts 209°
2026-05-08 02:20 40.64959 -73.75142 201 ft 136 kts 210°
2026-05-08 02:20 40.64138 -73.75788 50 ft 138 kts 210°
2026-05-08 02:20 40.63395 -73.76368 28 ft 93 kts 211°
2026-05-08 02:20 40.62997 -73.76725 29 ft 44 kts 230°
2026-05-08 02:21 40.62957 -73.77029 28 ft 26 kts 297°
2026-05-08 02:21 40.62997 -73.77118 29 ft 8 kts 301°
2026-05-08 02:21 40.63032 -73.77196 31 ft 15 kts 300°
2026-05-08 02:21 40.63106 -73.77362 30 ft 22 kts 301°
2026-05-08 02:22 40.63186 -73.77537 27 ft 22 kts 301°
2026-05-08 02:22 40.63265 -73.77710 29 ft 18 kts 301°
2026-05-08 02:22 40.63318 -73.77829 27 ft 16 kts 301°
2026-05-08 02:22 40.63376 -73.77960 31 ft 17 kts 300°
2026-05-08 02:23 40.63435 -73.78096 31 ft 17 kts 300°
2026-05-08 02:23 40.63495 -73.78230 29 ft 17 kts 302°
2026-05-08 02:23 40.63556 -73.78362 30 ft 17 kts 300°
2026-05-08 02:23 40.63615 -73.78495 30 ft 17 kts 301°
2026-05-08 02:24 40.63677 -73.78629 31 ft 17 kts 301°
2026-05-08 02:24 40.63736 -73.78761 32 ft 17 kts 301°
2026-05-08 02:24 40.63797 -73.78895 31 ft 17 kts 301°
2026-05-08 02:24 40.63857 -73.79029 29 ft 17 kts 301°
2026-05-08 02:25 40.63917 -73.79163 30 ft 17 kts 300°
2026-05-08 02:25 40.63978 -73.79296 28 ft 17 kts 301°
2026-05-08 02:25 40.64038 -73.79429 30 ft 17 kts 302°
2026-05-08 02:25 40.64135 -73.79507 29 ft 17 kts 355°
2026-05-08 02:26 40.64249 -73.79501 28 ft 14 kts
2026-05-08 02:26 40.64379 -73.79491 28 ft 20 kts
2026-05-08 02:26 40.64516 -73.79504 29 ft 20 kts 354°
2026-05-08 02:26 40.64638 -73.79558 29 ft 18 kts 326°
2026-05-08 02:27 40.64715 -73.79625 27 ft 10 kts 341°
2026-05-08 02:27 40.64766 -73.79568 25 ft 11 kts 60°
2026-05-08 02:27 40.64798 -73.79492 25 ft 4 kts 69°
2026-05-08 02:27 40.64790 -73.79455 26 ft 5 kts 116°
2026-05-08 02:28 40.64760 -73.79429 23 ft 6 kts 153°
2026-05-08 02:28 40.64754 -73.79425 23 ft 0 kts 152°